EN

Hourly Weather Ababkovo

Today, 14 June, Monday

Time Temperature Precipitation Wind Pressure Humidity
00:00 +15°C° 0 mm 1 mps 736 mmHg 84%
01:00 +15°C° 0 mm 1 mps 736 mmHg 88%
02:00 +14°C° 0 mm 1 mps 736 mmHg 90%
03:00 +15°C° 0 mm 1 mps 737 mmHg 88%
04:00 +16°C° 0 mm 1 mps 737 mmHg 86%
05:00 +16°C° 0 mm 1 mps 737 mmHg 85%
06:00 +19°C° 0 mm 1 mps 738 mmHg 78%
07:00 +21°C° 0 mm 1 mps 738 mmHg 71%
08:00 +22°C° 0 mm 1 mps 739 mmHg 65%
09:00 +22°C° 0.4 mm 1 mps 739 mmHg 66%
10:00 +23°C° 0.4 mm 2 mps 739 mmHg 66%
11:00 +23°C° 0.4 mm 2 mps 740 mmHg 67%
12:00 +23°C° 0.5 mm 2 mps 740 mmHg 65%
13:00 +23°C° 0.5 mm 2 mps 740 mmHg 63%
14:00 +24°C° 0.5 mm 2 mps 740 mmHg 61%
15:00 +24°C° 0.1 mm 2 mps 740 mmHg 59%
16:00 +24°C° 0.1 mm 2 mps 740 mmHg 57%
17:00 +24°C° 0.1 mm 1 mps 740 mmHg 56%
18:00 +22°C° 0 mm 1 mps 740 mmHg 62%
19:00 +21°C° 0 mm 1 mps 740 mmHg 68%
20:00 +19°C° 0 mm 1 mps 740 mmHg 74%
21:00 +18°C° 0 mm 1 mps 740 mmHg 77%
22:00 +16°C° 0 mm 1 mps 740 mmHg 80%
23:00 +15°C° 0 mm 1 mps 740 mmHg 83%

Tomorrow, 15 June, Tuesday

Time Temperature Precipitation Wind Pressure Humidity
00:00 +14°C° 0 mm 1 mps 740 mmHg 86%
01:00 +13°C° 0 mm 0 mps 740 mmHg 88%
02:00 +12°C° 0 mm 0 mps 740 mmHg 90%
03:00 +13°C° 0 mm 0 mps 740 mmHg 88%
04:00 +15°C° 0 mm 1 mps 739 mmHg 85%
05:00 +16°C° 0 mm 1 mps 739 mmHg 82%
06:00 +19°C° 0 mm 1 mps 739 mmHg 75%
07:00 +20°C° 0 mm 1 mps 739 mmHg 68%
08:00 +21°C° 0 mm 2 mps 739 mmHg 60%
09:00 +23°C° 0 mm 2 mps 739 mmHg 54%
10:00 +24°C° 0 mm 2 mps 738 mmHg 48%
11:00 +26°C° 0 mm 3 mps 738 mmHg 42%
12:00 +26°C° 0 mm 3 mps 738 mmHg 40%
13:00 +27°C° 0 mm 3 mps 737 mmHg 38%
14:00 +27°C° 0 mm 3 mps 737 mmHg 37%
15:00 +27°C° 0 mm 3 mps 737 mmHg 38%
16:00 +26°C° 0 mm 3 mps 737 mmHg 40%
17:00 +26°C° 0 mm 3 mps 736 mmHg 41%
18:00 +22°C° 0 mm 3 mps 736 mmHg 51%
19:00 +20°C° 0 mm 2 mps 736 mmHg 61%
20:00 +18°C° 0 mm 2 mps 736 mmHg 70%
21:00 +16°C° 0 mm 2 mps 736 mmHg 77%
22:00 +15°C° 0 mm 2 mps 737 mmHg 84%
23:00 +14°C° 0 mm 2 mps 737 mmHg 91%

Day after tomorrow, 16 June, Wednesday

Time Temperature Precipitation Wind Pressure Humidity
00:00 +15°C° 0 mm 2 mps 737 mmHg 92%
01:00 +15°C° 0 mm 2 mps 737 mmHg 93%
02:00 +15°C° 0 mm 2 mps 737 mmHg 94%
03:00 +15°C° 0 mm 2 mps 738 mmHg 92%
04:00 +15°C° 0 mm 2 mps 738 mmHg 90%
05:00 +15°C° 0 mm 2 mps 738 mmHg 89%
06:00 +16°C° 0 mm 3 mps 739 mmHg 76%
07:00 +17°C° 0 mm 3 mps 739 mmHg 63%
08:00 +19°C° 0 mm 3 mps 740 mmHg 50%
09:00 +19°C° 0 mm 3 mps 740 mmHg 45%
10:00 +20°C° 0 mm 3 mps 740 mmHg 39%
11:00 +21°C° 0 mm 3 mps 741 mmHg 33%
12:00 +22°C° 0 mm 3 mps 741 mmHg 32%
13:00 +22°C° 0 mm 4 mps 741 mmHg 32%
14:00 +22°C° 0 mm 4 mps 741 mmHg 31%
15:00 +22°C° 0 mm 3 mps 741 mmHg 34%
16:00 +21°C° 0 mm 3 mps 742 mmHg 37%
17:00 +21°C° 0 mm 3 mps 742 mmHg 40%
18:00 +19°C° 0 mm 2 mps 742 mmHg 48%
19:00 +17°C° 0 mm 2 mps 742 mmHg 56%
20:00 +15°C° 0 mm 1 mps 743 mmHg 64%
21:00 +14°C° 0 mm 1 mps 743 mmHg 66%
22:00 +13°C° 0 mm 1 mps 744 mmHg 68%
23:00 +12°C° 0 mm 1 mps 744 mmHg 70%

17 June, Thursday

Time Temperature Precipitation Wind Pressure Humidity
00:00 +12°C° 0 mm 1 mps 744 mmHg 70%
01:00 +11°C° 0 mm 1 mps 745 mmHg 71%
02:00 +11°C° 0 mm 1 mps 745 mmHg 71%
03:00 +12°C° 0 mm 1 mps 745 mmHg 70%
04:00 +13°C° 0 mm 1 mps 746 mmHg 69%
05:00 +14°C° 0 mm 1 mps 746 mmHg 69%
06:00 +16°C° 0 mm 1 mps 746 mmHg 61%
07:00 +19°C° 0 mm 1 mps 746 mmHg 54%
08:00 +20°C° 0 mm 2 mps 747 mmHg 46%
09:00 +21°C° 0 mm 2 mps 747 mmHg 43%
10:00 +23°C° 0 mm 2 mps 747 mmHg 40%
11:00 +24°C° 0 mm 2 mps 747 mmHg 37%
12:00 +25°C° 0 mm 2 mps 747 mmHg 36%
13:00 +25°C° 0 mm 2 mps 747 mmHg 35%
14:00 +26°C° 0 mm 2 mps 747 mmHg 33%
15:00 +26°C° 0 mm 2 mps 747 mmHg 36%
16:00 +26°C° 0 mm 2 mps 747 mmHg 38%
17:00 +25°C° 0 mm 2 mps 747 mmHg 41%
18:00 +23°C° 0 mm 2 mps 747 mmHg 50%
19:00 +21°C° 0 mm 1 mps 747 mmHg 59%
20:00 +19°C° 0 mm 1 mps 747 mmHg 68%
21:00 +18°C° 0 mm 1 mps 747 mmHg 69%
22:00 +16°C° 0 mm 1 mps 748 mmHg 71%
23:00 +16°C° 0 mm 1 mps 748 mmHg 72%

18 June, Friday

Time Temperature Precipitation Wind Pressure Humidity
00:00 +15°C° 0 mm 1 mps 748 mmHg 73%
01:00 +15°C° 0 mm 1 mps 748 mmHg 75%
02:00 +14°C° 0 mm 1 mps 748 mmHg 76%
03:00 +15°C° 0 mm 1 mps 748 mmHg 75%
04:00 +16°C° 0 mm 1 mps 749 mmHg 74%
05:00 +18°C° 0 mm 1 mps 749 mmHg 73%
06:00 +20°C° 0 mm 1 mps 749 mmHg 65%
07:00 +22°C° 0 mm 1 mps 749 mmHg 57%
08:00 +24°C° 0 mm 1 mps 749 mmHg 50%
09:00 +25°C° 0 mm 2 mps 749 mmHg 46%
10:00 +26°C° 0 mm 2 mps 749 mmHg 41%
11:00 +27°C° 0 mm 2 mps 748 mmHg 37%
12:00 +28°C° 0 mm 2 mps 748 mmHg 36%
13:00 +28°C° 0 mm 3 mps 748 mmHg 35%
14:00 +29°C° 0 mm 3 mps 748 mmHg 34%
15:00 +29°C° 0 mm 3 mps 748 mmHg 37%
16:00 +28°C° 0 mm 3 mps 747 mmHg 40%
17:00 +28°C° 0 mm 2 mps 747 mmHg 42%
18:00 +26°C° 0 mm 2 mps 747 mmHg 52%
19:00 +24°C° 0 mm 2 mps 747 mmHg 62%
20:00 +20°C° 0 mm 2 mps 747 mmHg 72%
21:00 +19°C° 0 mm 2 mps 747 mmHg 75%
22:00 +18°C° 0 mm 2 mps 747 mmHg 77%
23:00 +17°C° 0 mm 2 mps 747 mmHg 80%

19 June, Saturday

Time Temperature Precipitation Wind Pressure Humidity
00:00 +17°C° 0 mm 2 mps 748 mmHg 83%
01:00 +16°C° 0 mm 2 mps 748 mmHg 86%
02:00 +16°C° 0 mm 2 mps 748 mmHg 89%
03:00 +17°C° 0 mm 3 mps 748 mmHg 87%
04:00 +17°C° 0 mm 3 mps 748 mmHg 85%
05:00 +18°C° 0 mm 3 mps 748 mmHg 83%
06:00 +20°C° 0 mm 3 mps 748 mmHg 75%
07:00 +22°C° 0 mm 3 mps 748 mmHg 67%
08:00 +25°C° 0 mm 3 mps 748 mmHg 59%
09:00 +26°C° 0 mm 3 mps 748 mmHg 55%
10:00 +27°C° 0 mm 3 mps 748 mmHg 50%
11:00 +29°C° 0 mm 3 mps 748 mmHg 46%
12:00 +29°C° 0 mm 3 mps 748 mmHg 43%
13:00 +30°C° 0 mm 3 mps 748 mmHg 40%
14:00 +31°C° 0 mm 3 mps 747 mmHg 37%
15:00 +31°C° 0 mm 3 mps 747 mmHg 40%
16:00 +30°C° 0 mm 3 mps 747 mmHg 42%
17:00 +30°C° 0 mm 2 mps 747 mmHg 44%
18:00 +28°C° 0 mm 2 mps 747 mmHg 53%
19:00 +25°C° 0 mm 2 mps 747 mmHg 62%
20:00 +23°C° 0 mm 2 mps 747 mmHg 71%
21:00 +21°C° 0 mm 2 mps 747 mmHg 72%
22:00 +20°C° 0 mm 2 mps 747 mmHg 73%
23:00 +19°C° 0 mm 2 mps 747 mmHg 74%
Show more